Wind_Speed
25 25 25 24 23 22 21 21 23 25 27 30 32 33 32 30 28 26 24 22 21 20 19 18 18 19 19 19 19 19 20 19 19 18 18 18 19 20 21 22 23 23 23 24 25 25 24 23 24 24 24 23 23 24 24 25 26 27 29 31 34 38 40 42 44 43 37 33 33 33 33 35 36 36 36 37 36 36 36 34 33 32 33 35 36
27 27 27 26 25 24 23 22 25 27 27 29 32 33 32 31 28 26 24 22 21 20 19 18 18 18 19 19 18 19 20 20 19 18 19 19 20 21 22 23 23 23 24 24 25 26 26 25 24 24 24 25 25 26 25 26 27 28 29 32 36 38 41 42 43 44 40 35 32 32 33 36 37 36 37 38 38 38 39 37 35 34 33 34 35
29 29 30 28 27 26 23 23 26 27 27 29 32 33 31 29 28 27 26 25 23 21 20 19 19 19 19 19 17 17 18 19 19 18 19 20 21 22 22 22 23 24 24 25 25 25 26 26 25 26 26 26 27 27 27 26 27 28 29 31 36 39 41 43 43 44 43 38 33 31 32 36 38 37 37 39 39 40 41 39 37 37 35 34 35
31 32 32 31 29 26 23 24 27 27 27 29 32 32 30 29 30 30 29 27 24 23 22 21 21 20 20 19 19 17 17 18 19 19 20 20 21 22 22 22 23 24 24 24 25 25 25 25 26 27 27 27 26 26 27 27 28 29 30 30 34 38 40 42 43 43 43 39 34 31 32 34 38 39 38 40 40 41 42 42 40 39 38 37 36
33 34 35 33 29 25 24 27 27 26 27 30 31 31 31 31 32 30 28 26 23 22 22 22 22 22 22 21 20 19 18 18 19 19 20 21 21 22 22 22 23 24 24 24 25 25 26 26 26 26 26 25 25 26 27 28 28 29 31 31 33 37 40 41 41 42 42 39 35 32 31 32 35 38 39 39 41 42 43 43 42 41 40 39 39
33 36 37 34 30 26 26 28 25 25 28 30 30 31 31 30 28 25 22 21 20 19 20 20 21 22 22 22 21 20 20 20 20 20 20 21 22 22 22 22 22 22 23 24 24 24 25 25 25 25 25 24 24 25 27 29 29 30 31 31 32 36 40 41 41 41 41 37 35 33 31 30 32 36 38 38 40 42 42 43 44 43 42 41 41
34 36 37 35 31 28 28 27 24 25 28 29 29 29 29 27 24 20 19 18 18 18 19 20 20 21 21 21 22 22 22 22 22 22 22 22 22 23 23 23 22 22 22 23 22 22 23 24 25 25 24 24 25 26 28 30 32 32 31 32 33 35 39 42 41 41 41 37 32 32 32 30 29 32 37 38 39 40 42 43 44 43 43 43 42
34 36 36 35 31 27 27 24 23 26 28 28 28 27 27 25 21 18 17 17 18 18 18 18 19 19 20 22 23 23 23 23 23 23 23 23 22 23 24 24 23 22 21 21 21 22 23 25 25 25 25 25 25 26 28 31 33 33 31 32 33 34 38 42 42 41 42 39 31 29 30 29 28 28 33 38 39 38 39 42 43 43 43 43 43
33 33 33 31 27 26 26 23 23 26 26 26 27 27 26 23 19 18 17 17 18 18 18 18 18 19 20 22 23 23 23 23 23 23 24 24 23 23 24 25 24 23 22 22 21 22 24 25 24 24 25 25 25 26 27 30 32 32 31 32 33 34 36 41 44 42 42 42 35 29 28 27 26 26 30 36 39 38 37 40 43 43 42 43 44
32 31 31 29 26 27 25 23 24 26 25 26 27 26 25 22 19 18 18 19 20 20 19 19 19 19 20 22 23 23 22 22 22 23 24 24 24 24 24 25 25 25 25 24 22 22 23 24 24 24 24 25 25 25 26 29 30 31 31 31 31 32 35 41 43 42 42 42 38 31 29 27 25 25 28 33 38 40 38 39 42 43 42 43 44
33 32 32 29 27 25 22 23 25 25 25 26 26 25 24 22 20 20 21 23 23 23 22 21 20 20 20 21 21 20 21 21 21 21 22 23 23 23 24 24 24 25 25 25 24 23 23 23 23 23 24 24 25 25 27 28 29 30 30 30 30 31 35 40 42 41 42 43 40 34 31 29 26 25 27 31 36 40 40 40 41 42 43 44 44
34 34 34 30 24 20 20 23 24 25 26 26 25 25 23 22 22 23 25 26 26 25 24 24 23 21 21 21 20 19 20 20 20 20 20 21 22 23 23 24 24 24 25 25 25 25 24 24 23 24 24 25 25 26 27 28 28 29 28 28 28 29 33 38 40 40 43 43 40 35 31 31 30 27 27 29 34 39 40 40 41 42 43 44 45
31 29 31 27 20 18 21 23 23 24 25 25 24 24 23 23 24 25 26 27 27 26 26 25 25 23 22 21 20 20 20 20 20 21 20 21 22 23 24 25 25 25 25 25 26 26 26 25 25 24 24 25 26 27 28 28 28 28 27 27 28 28 31 35 37 39 43 44 40 35 31 32 34 32 29 29 32 37 40 40 39 41 43 44 44
25 22 22 21 19 20 22 22 23 24 23 24 24 24 24 24 24 24 26 27 27 27 26 26 26 25 24 22 22 21 21 20 20 21 21 22 23 24 24 25 25 26 25 25 26 27 27 26 25 25 25 25 27 27 28 28 27 26 26 26 27 28 30 33 34 37 42 42 37 32 30 32 35 36 34 31 31 35 39 40 38 39 41 41 41
19 16 16 18 19 20 21 22 22 22 23 24 24 24 24 24 24 25 25 26 26 26 26 26 26 26 25 24 23 22 21 21 21 21 22 22 22 24 24 25 25 25 24 25 26 27 27 26 26 26 26 26 27 27 27 27 27 26 26 26 26 29 31 31 31 34 39 40 34 29 28 30 32 36 37 36 34 34 37 41 40 39 39 40 41
14 13 15 17 19 19 20 21 22 23 24 25 25 25 26 26 26 26 26 26 26 26 26 26 27 27 27 26 25 24 22 21 21 22 22 22 22 24 25 25 24 23 23 24 25 25 25 25 26 26 26 26 26 27 28 27 27 27 26 26 28 31 31 30 29 32 37 39 35 29 27 26 28 32 35 35 35 34 35 41 43 42 40 40 41
11 11 13 15 17 18 20 22 23 25 25 26 27 27 27 27 28 28 27 27 26 25 26 27 28 29 28 28 27 25 23 22 22 22 23 23 23 24 25 24 22 21 22 23 23 23 23 24 25 26 26 26 27 27 27 27 27 27 28 29 30 31 30 29 29 32 36 38 36 32 29 26 25 29 33 34 33 32 34 41 44 43 42 42 42
9 11 13 14 16 18 21 23 25 26 26 28 29 29 29 29 29 29 28 27 27 26 27 28 29 30 30 29 29 27 26 24 23 23 23 24 24 24 25 23 21 20 21 21 21 22 23 23 25 25 26 26 27 27 27 26 26 27 29 29 29 28 29 29 30 34 38 38 38 35 30 26 25 27 31 33 32 31 34 39 42 43 43 44 43
10 12 13 15 17 20 22 25 26 28 29 30 31 31 31 31 31 30 28 27 27 28 28 29 30 30 31 31 30 28 27 25 23 22 23 23 24 24 24 23 20 19 20 21 20 21 22 23 23 24 25 26 26 26 26 26 26 27 27 28 28 28 29 30 32 37 41 41 40 40 34 26 24 25 29 33 32 32 33 36 39 43 45 44 42
11 13 15 17 19 22 25 28 30 32 34 35 35 35 34 33 31 28 26 26 27 28 29 30 30 30 30 30 28 27 27 25 22 21 22 23 24 24 23 22 21 20 20 21 21 20 21 21 22 24 25 25 25 25 26 26 26 26 26 27 28 29 30 31 33 37 41 42 42 44 40 28 23 24 28 31 32 33 33 33 37 43 46 43 42
13 15 17 19 22 24 26 30 33 35 38 38 37 35 35 34 31 27 24 23 25 26 28 29 28 28 28 26 24 25 25 23 21 20 21 23 24 23 22 22 22 21 20 20 21 21 21 21 21 23 25 25 24 24 25 25 25 25 26 27 28 29 30 32 34 36 41 43 42 45 44 32 22 22 25 28 30 31 32 32 36 42 44 42 40
14 16 18 20 23 25 28 31 33 36 39 40 37 35 35 35 34 31 28 27 27 24 22 26 26 25 25 23 21 21 20 19 19 20 20 22 23 21 21 22 22 22 21 20 21 21 21 22 22 24 26 25 24 23 24 25 25 25 27 27 27 28 29 30 33 36 40 42 41 45 47 37 25 21 22 25 28 28 29 32 34 39 42 40 38
14 16 19 21 24 27 29 31 33 35 38 39 39 39 38 37 37 37 36 39 36 25 17 21 25 24 23 21 21 21 19 18 19 19 20 21 21 21 21 21 22 23 23 21 21 21 22 23 23 25 26 24 23 23 23 24 25 25 26 27 26 27 27 29 32 34 38 40 41 45 48 40 29 25 22 21 25 25 26 30 32 35 38 37 36
13 15 18 21 24 27 29 32 35 37 38 39 39 39 37 35 35 34 34 39 40 28 18 18 21 23 22 21 21 24 23 20 19 19 19 20 20 20 21 22 23 24 23 23 22 21 22 23 24 25 25 24 22 22 22 23 24 25 26 26 26 26 26 28 30 33 36 39 41 46 47 39 31 29 26 20 20 22 23 27 30 33 34 35 34
12 14 17 20 22 26 29 31 34 36 37 38 37 37 37 35 32 30 30 33 33 27 23 21 19 19 21 22 23 25 25 22 20 18 17 18 20 21 23 24 24 24 23 23 22 22 23 23 23 24 24 23 22 21 21 21 22 24 26 26 25 25 26 27 29 32 35 38 40 45 45 38 31 30 28 23 20 18 18 23 28 30 32 34 34
13 14 17 20 24 27 30 32 33 34 34 35 36 37 37 35 31 30 31 31 27 24 25 26 20 16 18 22 25 26 25 22 19 16 15 18 21 24 26 26 25 25 24 23 23 23 23 23 23 23 23 22 21 20 20 20 22 24 25 25 25 25 25 27 29 31 34 37 39 43 43 37 31 29 28 24 20 16 14 18 24 28 30 32 33
18 20 21 24 27 30 32 33 33 32 32 33 34 35 35 34 33 31 30 29 27 26 27 27 21 17 19 23 26 26 25 22 18 15 16 19 23 26 28 27 26 25 24 23 23 23 22 22 22 23 22 21 20 19 20 21 22 22 23 24 24 24 25 26 28 30 32 35 37 40 41 38 33 29 28 25 19 13 11 14 21 27 29 30 31
26 27 26 27 29 31 31 32 32 32 33 33 33 35 35 34 33 31 28 27 27 27 25 22 20 20 22 24 25 25 24 22 20 18 19 22 25 27 28 27 26 25 24 23 22 22 21 21 22 22 22 20 19 19 20 21 21 21 22 23 23 23 23 24 26 27 29 32 35 37 39 40 37 34 32 30 24 13 7 12 17 22 26 27 28
27 26 26 28 30 30 30 31 32 33 34 34 34 35 35 34 32 30 27 24 23 23 23 21 21 23 23 23 24 25 23 22 22 23 23 25 27 28 28 28 26 25 23 22 21 21 21 20 20 20 21 20 20 20 21 21 21 21 22 22 22 22 22 22 23 25 27 30 33 35 36 39 40 37 34 32 30 22 7 7 14 19 23 26 27
24 24 27 30 31 31 31 32 33 33 34 35 35 35 34 33 32 29 26 24 23 23 23 22 22 23 24 24 24 24 22 22 24 25 26 28 28 28 28 28 27 25 23 22 20 20 21 19 18 19 20 20 21 22 22 21 21 21 21 22 22 21 21 22 23 24 26 27 30 33 35 37 38 38 36 33 31 28 19 5 10 18 23 27 29
23 25 28 30 31 32 32 33 34 35 35 35 35 35 34 33 31 29 27 27 27 26 24 23 23 24 26 26 25 24 24 24 25 26 28 30 31 29 28 28 27 24 22 21 20 20 19 18 18 19 21 21 21 22 22 22 21 20 20 21 22 21 21 22 22 23 24 26 27 30 32 33 35 37 37 36 34 31 26 17 8 16 24 28 30
25 27 28 30 32 32 32 34 35 36 36 36 35 34 34 33 31 30 28 28 28 27 26 25 26 27 27 26 24 24 25 26 27 27 29 30 31 30 28 26 25 23 22 21 20 19 18 18 19 20 21 22 22 22 22 22 21 20 20 20 22 21 21 21 22 23 24 24 25 27 29 30 32 33 34 35 36 34 29 24 17 10 12 20 27
28 29 30 32 33 33 33 35 36 37 37 37 35 34 33 33 32 30 29 28 28 28 27 27 28 28 27 26 25 25 25 25 25 26 27 28 28 28 27 25 24 24 23 21 19 18 17 17 19 21 22 22 22 22 23 23 22 21 21 20 21 22 21 21 21 22 22 23 23 24 26 27 28 29 29 31 35 36 32 26 21 19 16 13 16
30 31 33 33 34 35 35 35 36 38 38 37 34 32 32 32 32 31 30 29 29 28 28 27 27 27 26 26 26 24 23 22 22 23 24 25 24 25 25 25 24 23 22 20 19 18 17 18 19 20 21 22 22 22 23 24 23 22 22 21 21 22 22 21 20 20 20 20 20 21 22 24 25 26 27 28 31 33 33 30 24 22 20 17 16
31 33 34 34 35 36 36 36 36 38 38 37 34 31 30 31 31 31 29 28 28 28 26 25 25 25 24 24 24 22 21 20 20 21 22 22 20 20 20 21 21 21 20 20 19 18 18 18 19 20 20 21 22 22 23 24 23 22 21 20 20 20 21 21 20 19 19 18 18 18 20 21 22 23 24 26 27 29 31 32 30 27 24 18 17
33 34 34 35 36 37 37 37 37 37 37 36 34 32 31 31 30 29 28 28 28 26 23 21 20 20 20 21 22 21 20 19 19 20 20 19 17 16 16 17 18 19 20 20 20 19 18 19 19 19 20 21 22 23 23 22 22 21 20 18 17 18 18 19 19 19 18 17 16 16 17 18 18 19 20 22 24 25 27 29 30 30 28 24 18
33 33 34 35 36 37 37 38 38 37 37 35 34 33 32 30 29 27 26 27 27 24 20 17 17 17 18 20 20 20 19 19 18 18 17 16 15 15 16 16 17 18 20 21 20 19 19 19 20 20 21 21 21 22 21 21 20 19 18 17 16 15 16 17 17 17 17 17 16 15 15 15 15 16 17 18 20 20 22 24 26 27 28 28 24
33 34 35 35 35 36 37 38 38 37 36 34 33 32 31 30 28 26 25 25 24 21 17 15 16 17 18 18 19 19 19 18 16 14 13 13 12 12 14 15 15 16 19 22 22 21 20 21 21 21 20 20 20 19 19 18 18 17 17 17 16 15 15 15 15 15 16 16 15 14 13 13 13 13 13 15 17 17 18 19 21 23 24 25 26
34 35 34 34 34 36 37 38 37 36 34 32 31 30 30 29 27 24 22 22 21 18 16 15 15 15 15 16 17 18 17 16 14 13 12 12 11 11 12 13 14 16 19 21 22 21 20 21 21 20 19 18 18 17 17 17 16 16 16 17 16 15 14 14 14 14 14 14 14 13 12 12 12 11 10 11 13 14 15 16 16 17 19 21 23
35 35 35 35 36 37 38 37 36 34 32 30 29 28 27 26 24 21 20 19 18 16 14 13 12 12 13 14 15 16 16 16 16 15 14 13 13 13 13 14 16 18 19 20 21 20 19 20 19 19 17 16 15 15 15 15 16 16 16 16 16 15 14 13 13 13 13 13 13 12 11 11 10 10 9 8 9 11 12 13 13 13 14 16 18
36 35 35 35 37 37 37 35 33 31 29 27 26 26 24 22 21 20 19 18 17 14 12 12 12 11 11 12 14 16 17 18 19 18 16 15 15 15 15 16 18 19 19 19 19 19 18 18 18 17 16 15 14 13 13 13 13 14 14 14 14 14 14 13 12 13 13 13 12 12 11 10 9 9 8 7 7 8 9 9 10 11 11 11 12
35 34 34 36 38 37 35 33 30 28 26 25 24 24 22 20 18 18 19 19 16 13 12 12 12 12 11 12 14 15 17 18 19 19 18 17 17 16 16 17 18 19 18 18 18 17 16 16 16 16 15 14 12 11 10 10 10 10 11 11 11 12 12 12 11 11 12 12 12 11 11 10 9 8 7 6 6 6 6 7 7 8 8 8 9
34 35 36 37 37 34 32 30 27 24 23 23 23 22 21 19 17 18 19 19 17 14 12 13 13 12 12 13 14 15 16 17 18 19 19 18 18 17 17 18 18 18 17 16 16 16 15 15 15 14 13 11 9 8 7 7 6 7 7 8 9 10 11 11 11 11 10 11 12 12 11 10 9 8 6 5 4 4 5 5 5 6 6 6 7
34 34 34 33 32 30 29 26 23 22 22 22 21 20 20 19 17 17 17 18 17 14 12 11 12 13 13 13 14 16 16 17 18 19 19 19 19 19 19 18 17 16 16 15 15 14 13 12 12 11 9 8 7 6 6 6 6 6 6 7 8 9 10 11 11 11 11 11 12 12 12 11 10 9 7 5 4 3 4 4 4 4 4 4 4
31 30 29 28 27 26 25 23 21 21 21 20 19 18 17 17 16 15 16 17 18 17 14 13 14 15 15 14 14 15 16 17 18 19 19 19 19 18 18 17 16 15 14 13 12 10 9 8 8 7 7 6 6 6 6 6 6 6 6 7 7 8 10 11 11 11 11 11 11 12 12 12 11 10 9 7 5 3 3 4 4 4 4 4 4
26 26 26 25 23 22 21 20 19 19 19 18 16 15 16 17 17 17 17 18 19 20 20 20 19 19 18 17 15 16 17 18 18 18 18 17 17 16 15 14 14 13 11 10 8 6 5 5 5 5 5 5 6 6 6 6 7 7 7 7 7 7 8 9 10 11 11 11 11 11 12 12 12 11 10 9 8 6 3 2 4 5 6 6 7
22 22 22 22 22 21 20 19 19 18 18 17 16 15 16 16 17 18 19 20 20 21 23 24 24 24 21 18 16 16 17 17 17 16 16 16 15 15 13 11 11 11 9 6 5 3 3 3 3 4 4 5 6 6 6 7 7 7 7 7 7 7 7 8 9 10 11 11 11 11 11 11 11 11 11 10 9 8 7 4 2 4 6 7 8
20 20 20 20 20 20 19 19 18 17 17 16 16 16 16 16 17 17 18 18 18 19 20 22 24 25 23 19 17 16 17 16 15 14 14 14 14 13 11 9 8 8 6 5 4 3 3 3 4 4 5 5 5 6 6 7 8 8 8 9 8 8 8 8 8 8 9 10 11 11 11 11 11 11 11 11 9 9 8 8 6 4 2 5 7
19 19 19 19 19 18 18 17 16 16 16 17 17 17 18 18 19 19 18 18 17 17 17 18 20 23 23 21 18 16 16 15 13 12 12 12 11 10 9 8 7 6 5 5 5 4 4 3 3 3 5 5 5 6 7 8 8 9 10 10 10 10 9 8 8 8 8 9 10 11 11 11 11 11 11 11 10 9 8 7 7 6 5 3 2
18 19 19 18 18 18 19 18 18 17 17 18 19 20 20 21 22 23 23 22 21 21 20 20 20 21 21 20 17 15 15 15 13 10 9 9 9 8 8 7 6 6 6 5 5 4 4 2 1 2 4 6 6 6 7 8 9 9 10 10 10 11 10 10 9 9 8 9 9 9 10 11 11 11 11 11 11 11 9 8 7 6 6 5 4
18 18 18 18 18 20 21 22 21 21 21 22 22 23 23 24 24 25 26 27 28 27 26 24 22 21 20 18 15 13 13 13 11 9 7 7 7 8 7 7 7 6 6 5 4 3 4 3 2 2 3 6 7 7 7 8 8 9 9 10 10 10 11 11 10 10 9 9 9 9 9 9 10 11 11 11 11 11 11 10 8 7 6 5 5
Wind_Direction
261 267 272 277 282 288 295 305 314 319 320 322 326 330 333 334 335 334 331 329 328 327 328 326 323 325 327 325 321 319 318 317 315 315 313 312 312 312 312 312 312 311 311 311 311 309 307 307 308 307 307 307 305 303 302 301 301 304 306 308 312 317 319 320 318 312 303 291 280 271 263 257 250 245 243 241 238 238 238 237 237 238 236 235 233
259 265 270 274 279 284 290 301 311 316 316 320 324 327 331 333 334 332 329 327 328 328 327 325 326 329 330 326 322 318 316 315 315 315 313 313 314 313 312 312 311 310 310 310 308 306 305 307 309 307 307 307 305 303 302 300 300 303 307 311 316 320 322 322 320 315 307 295 282 271 262 256 252 245 242 242 240 237 237 237 237 238 237 236 233
257 262 268 272 276 280 287 301 310 311 312 317 322 325 330 332 331 330 329 330 331 331 329 330 331 332 330 326 322 316 312 312 315 315 314 315 315 313 311 310 310 311 312 311 309 306 305 306 308 307 307 306 303 301 302 301 301 303 306 312 319 324 325 325 322 318 311 300 288 277 267 257 251 247 243 242 241 238 236 236 236 237 238 237 234
256 261 265 268 272 276 286 303 310 308 309 317 321 325 329 331 331 332 333 334 335 334 332 331 330 330 330 329 327 322 315 314 316 317 317 317 314 310 308 309 311 313 313 313 312 309 306 306 308 307 305 303 301 300 301 301 302 303 305 310 320 326 328 326 323 320 313 303 292 284 277 264 252 247 244 241 239 239 238 236 236 237 237 237 236
257 261 263 265 268 272 286 302 306 306 311 318 321 325 329 332 334 335 334 334 334 332 329 326 326 329 331 330 327 324 321 319 318 318 318 316 312 308 308 309 312 314 314 313 312 310 309 308 308 307 305 303 302 301 302 302 302 304 305 309 318 325 328 327 324 320 315 305 294 288 284 273 257 247 243 241 238 238 240 239 238 237 236 236 236
258 261 262 262 262 268 288 301 302 305 312 317 321 325 330 333 336 334 331 329 327 325 324 324 327 329 329 327 324 323 323 322 320 318 316 313 310 308 307 307 311 313 313 312 311 310 310 309 310 309 307 304 302 300 301 302 304 305 306 308 315 321 326 328 325 321 318 308 296 292 290 280 265 248 241 241 240 238 239 239 238 237 236 236 235
259 259 259 259 258 270 291 298 297 304 311 316 321 326 330 334 335 333 329 327 326 327 327 327 327 326 324 324 324 324 324 322 320 317 315 312 310 307 306 308 311 312 311 311 311 311 312 312 312 311 308 303 300 299 301 302 304 306 308 309 313 318 324 328 326 322 320 313 299 294 295 288 273 254 241 239 241 239 238 239 238 237 238 237 235
259 259 259 258 261 280 296 296 296 304 311 316 322 327 332 336 338 337 335 332 333 333 329 325 323 321 323 325 324 323 321 320 318 316 314 312 309 307 308 310 312 312 312 313 314 315 316 316 314 313 310 305 303 303 303 303 304 306 310 311 312 315 321 327 327 323 322 319 306 294 296 295 283 263 245 239 241 242 240 240 239 237 238 240 239
263 262 258 256 268 291 297 293 298 306 312 318 323 327 333 338 341 343 340 335 334 331 328 325 321 321 324 324 323 321 318 317 317 316 314 312 310 310 311 313 315 317 317 316 316 317 317 317 316 314 311 308 308 307 305 305 305 308 311 312 312 314 319 325 328 325 323 321 313 296 292 298 295 276 254 242 241 242 241 240 240 237 236 239 239
269 263 254 257 279 294 293 292 300 307 313 319 322 326 332 336 338 341 341 339 336 333 330 328 324 322 323 324 324 321 318 318 318 317 315 313 313 314 315 317 319 319 318 317 317 318 318 318 318 317 315 312 311 311 310 307 307 310 312 313 313 314 318 325 329 328 325 322 316 302 288 293 301 289 264 247 242 242 240 239 239 238 237 237 238
265 257 255 268 285 288 287 294 302 308 314 317 320 324 329 331 331 334 336 336 336 334 332 329 325 323 325 327 327 323 320 320 320 318 316 313 314 316 316 318 318 317 316 316 318 320 319 319 319 319 318 316 315 314 312 310 310 311 311 314 316 315 317 324 329 330 329 325 319 308 290 284 293 294 276 254 242 241 242 240 239 239 237 237 238
255 256 262 274 285 283 285 295 302 309 313 314 317 322 325 326 327 328 329 329 331 331 328 327 326 326 328 330 329 327 325 324 320 317 314 313 313 315 316 317 317 316 316 316 317 319 320 319 319 319 318 318 316 314 312 311 311 311 312 315 317 315 316 323 328 331 332 329 321 311 297 284 283 288 285 267 248 241 241 240 238 238 237 237 238
259 266 270 275 280 282 288 296 302 307 309 311 314 318 319 321 323 323 324 325 326 327 325 325 326 327 328 330 331 330 329 325 318 315 315 314 312 313 315 315 315 316 316 315 316 317 319 319 318 317 317 317 317 314 312 311 310 312 315 317 316 313 316 322 327 330 333 331 324 313 302 291 285 282 283 278 259 244 239 238 237 238 238 237 238
267 273 271 270 277 284 290 296 301 304 306 309 312 314 315 317 318 319 320 321 323 324 324 324 325 326 327 329 330 329 326 322 317 315 316 314 311 312 314 313 313 314 314 314 314 315 316 317 316 316 317 318 316 314 312 311 311 314 317 316 314 313 316 321 325 330 334 333 327 316 304 296 291 284 278 276 268 252 241 237 236 237 237 237 237
261 262 262 266 277 288 294 297 300 302 305 307 309 311 312 314 315 317 318 318 320 322 323 322 322 323 324 325 325 325 322 319 317 315 314 312 311 312 312 312 311 312 311 312 312 311 312 314 315 317 317 316 315 313 313 313 314 317 318 316 314 313 316 321 325 330 334 333 328 320 309 300 294 286 278 273 270 260 246 239 237 237 238 237 235
247 251 259 271 283 292 296 297 299 302 305 307 308 309 310 311 313 313 313 314 316 318 320 320 318 318 319 319 321 322 320 317 315 314 312 310 310 309 309 311 311 310 310 310 309 308 310 313 315 315 314 314 315 315 316 317 316 318 317 315 316 317 317 320 324 327 333 334 330 321 314 310 298 285 278 273 269 264 253 242 237 237 238 237 233
240 256 268 278 287 293 296 298 300 301 304 304 304 306 306 307 308 307 307 309 311 313 316 316 315 315 315 317 318 319 319 318 316 312 308 309 309 308 309 312 312 311 311 311 308 307 310 312 313 312 313 314 316 317 318 319 318 318 318 318 320 322 320 320 323 326 330 334 333 323 316 316 307 287 277 273 270 266 257 245 237 236 238 237 232
255 269 279 284 289 293 295 296 298 299 301 302 302 303 303 303 303 301 301 305 307 309 312 312 312 314 315 316 315 314 317 320 317 309 305 307 309 307 308 311 313 313 312 309 307 308 310 312 311 311 312 314 316 318 319 320 319 318 320 322 325 326 323 321 324 328 331 334 337 333 321 314 312 298 279 271 269 266 258 247 239 236 237 236 233
270 278 285 288 292 296 298 299 301 301 301 301 300 300 300 300 298 296 299 304 306 307 308 308 310 313 315 317 314 312 315 317 313 306 303 306 308 305 304 307 310 312 311 309 308 310 311 312 310 310 310 311 315 318 319 318 319 319 322 325 327 328 327 327 328 331 334 336 340 341 332 316 312 306 285 270 266 263 257 249 240 236 236 235 233
275 285 292 295 301 306 307 309 308 307 306 304 302 300 298 296 294 291 292 298 301 303 305 306 309 313 316 318 316 312 312 311 308 304 302 304 306 303 302 304 306 309 311 310 310 311 311 311 310 310 309 311 315 317 315 316 318 320 322 324 327 329 330 331 332 332 334 338 341 344 340 325 312 309 292 272 262 257 254 247 239 236 235 234 233
279 291 298 304 310 311 312 313 311 310 308 302 297 295 293 290 285 279 277 282 288 293 299 303 308 311 313 314 313 309 306 303 301 301 302 303 303 302 301 301 302 306 309 309 310 312 311 310 310 309 309 313 316 313 312 315 318 319 321 322 326 329 330 332 334 332 332 336 341 344 343 333 318 312 300 279 264 255 248 243 237 234 233 233 232
292 301 305 309 311 311 312 312 309 308 305 300 298 300 299 296 292 285 283 285 280 277 291 303 305 307 307 305 303 301 299 298 299 301 302 302 302 300 298 298 299 303 306 308 309 312 312 309 307 306 308 312 316 312 311 315 317 318 320 322 325 328 329 331 332 331 332 335 340 344 346 341 329 320 308 287 273 260 245 237 234 232 231 231 231
300 305 307 308 310 310 310 308 304 304 305 305 306 308 307 307 306 300 299 301 292 275 279 301 301 298 298 297 297 297 295 297 300 299 298 300 298 295 295 297 300 303 304 306 308 310 311 308 305 304 307 311 314 311 311 315 317 316 317 320 323 326 328 329 330 331 333 336 339 343 347 348 342 332 319 296 280 266 246 234 230 228 228 228 229
293 300 304 307 309 309 307 305 304 305 307 306 305 304 304 308 310 306 306 310 305 289 276 286 291 289 290 289 291 294 293 295 296 293 292 293 292 292 295 298 300 301 301 303 307 310 311 309 306 304 306 309 311 311 311 315 316 315 315 317 320 323 326 328 330 331 334 336 339 342 346 352 352 341 330 313 290 271 249 234 225 222 224 226 226
292 300 304 306 307 306 303 303 303 304 305 305 303 302 304 306 307 305 308 315 313 299 281 275 276 280 284 282 283 288 289 289 290 290 288 285 285 290 296 298 298 299 300 302 307 311 312 310 307 305 305 308 310 310 312 314 314 315 316 317 319 322 325 329 330 332 335 337 338 341 346 355 0 352 343 332 309 280 251 234 224 217 218 222 224
298 298 299 302 304 305 304 304 303 302 302 302 300 298 301 303 301 302 307 311 311 304 294 289 286 284 281 277 278 283 285 283 284 289 286 280 282 291 296 298 299 301 302 304 307 310 311 310 307 304 305 309 311 310 312 314 314 315 316 315 318 321 325 329 330 332 336 337 338 342 348 357 6 3 355 344 325 295 259 233 221 214 213 218 222
303 301 302 306 309 309 309 307 306 305 303 301 299 297 300 302 301 302 306 307 306 305 303 300 297 291 285 281 281 283 284 280 278 284 284 281 286 294 296 297 300 301 301 303 304 307 309 307 303 303 307 310 310 309 312 314 315 317 315 314 318 322 325 329 331 332 335 336 337 343 350 358 7 12 10 4 351 318 272 235 219 213 212 215 221
304 302 304 309 311 310 309 308 308 308 306 303 301 299 300 301 302 304 306 305 303 304 303 300 293 287 287 288 285 286 288 283 274 276 284 287 291 296 295 295 298 298 296 296 299 302 304 302 301 305 309 309 307 307 310 313 315 317 316 315 318 320 322 326 328 329 333 336 337 343 350 357 5 14 18 18 17 2 291 240 219 211 211 215 221
297 295 301 310 313 312 312 312 312 312 311 309 307 305 303 303 305 306 306 305 304 303 302 297 288 283 286 289 287 289 295 290 278 276 285 291 293 294 292 291 293 293 289 288 292 297 299 298 301 307 308 305 304 306 309 312 313 315 316 315 316 318 318 319 322 325 330 335 337 342 349 355 1 10 18 23 27 28 15 234 218 209 208 213 220
287 291 301 311 316 315 316 318 318 317 316 315 313 310 306 305 305 306 306 305 304 305 302 295 285 282 284 286 285 286 290 289 283 282 288 292 293 294 291 288 289 288 284 284 288 293 296 298 301 304 303 301 303 305 308 310 311 312 313 313 314 315 316 316 320 323 328 333 337 340 346 352 358 6 15 22 26 32 42 75 202 207 207 212 217
283 289 298 308 314 315 315 318 320 321 320 319 316 312 308 306 306 304 303 302 304 305 302 294 286 283 285 286 286 285 287 288 288 288 289 291 292 293 290 286 286 285 281 282 287 293 296 296 295 295 296 298 302 305 308 309 309 309 310 311 312 314 315 315 318 321 325 330 335 337 341 349 355 1 11 19 23 27 37 55 118 191 206 214 218
282 288 295 303 309 312 314 316 319 321 322 321 318 313 309 306 305 303 302 302 304 303 300 294 290 289 289 289 289 289 289 289 289 289 289 290 291 291 287 283 283 283 280 281 288 294 296 292 288 289 293 297 301 305 307 307 307 307 308 309 309 312 314 316 317 320 324 328 332 335 338 345 353 358 6 16 21 23 29 43 63 108 173 201 212
283 288 293 299 306 310 312 314 317 321 322 321 318 314 309 306 303 302 302 302 301 299 297 295 293 292 291 291 291 291 291 291 290 289 289 288 288 287 283 280 279 280 280 282 288 293 292 288 285 287 292 296 299 302 305 306 306 306 306 307 308 310 313 316 318 322 325 327 330 333 336 341 351 357 3 12 20 24 28 33 41 53 77 127 177
286 289 292 298 305 308 309 311 314 318 320 320 316 310 305 301 299 299 300 300 298 297 296 296 294 291 289 290 292 292 291 290 289 288 287 284 282 280 279 279 279 279 280 284 289 290 288 285 285 288 291 294 296 299 303 305 305 305 305 306 306 307 310 314 317 320 324 326 328 330 333 339 346 352 359 7 14 21 28 33 34 35 49 78 105
288 290 293 299 304 306 307 309 313 316 318 317 313 307 301 298 297 298 299 298 295 295 296 295 291 287 286 287 289 290 290 289 288 288 288 288 285 280 277 278 279 280 283 287 289 289 286 285 286 288 290 292 295 298 301 302 303 304 305 305 305 305 305 308 312 316 320 323 326 328 331 337 343 348 353 0 8 15 24 32 36 33 33 44 68
287 289 294 299 302 304 306 309 312 315 316 314 311 306 301 297 296 297 298 296 294 294 294 291 286 284 284 286 288 290 291 289 286 286 288 290 291 288 280 277 280 283 286 288 289 289 289 288 290 291 292 294 295 297 299 300 301 303 305 306 307 305 303 304 307 311 314 318 323 327 329 333 340 344 347 353 2 9 17 25 32 35 33 32 39
286 289 294 299 301 302 305 308 312 314 313 310 307 303 300 297 297 297 296 294 294 295 294 288 282 280 282 285 288 290 290 287 284 285 289 293 293 287 280 278 281 285 288 289 290 292 292 292 292 292 293 294 295 296 297 298 299 302 306 310 312 312 310 308 306 308 312 315 319 325 328 329 334 339 343 348 356 4 12 18 25 30 32 33 34
285 290 295 298 299 301 304 308 311 311 309 308 305 302 300 299 298 296 294 292 292 293 292 288 283 281 284 288 290 291 291 289 287 289 294 297 292 281 275 276 281 286 289 290 291 292 292 291 291 291 293 294 294 294 296 297 299 303 308 313 317 319 319 318 316 314 314 315 317 321 324 325 329 334 338 343 349 358 6 13 19 24 28 31 33
286 291 293 295 297 299 303 307 309 309 308 306 303 301 300 299 298 296 293 290 290 289 288 286 284 283 284 284 285 287 288 289 290 291 292 291 287 280 276 277 280 282 284 286 289 291 290 289 290 291 291 291 291 293 296 298 301 306 310 314 318 320 321 323 323 321 319 316 316 318 321 323 324 327 330 335 342 349 358 7 14 20 24 27 29
288 291 293 294 296 299 303 305 306 306 305 303 301 300 299 298 297 294 288 284 285 286 285 281 279 278 276 273 274 278 282 285 288 288 285 283 283 284 286 287 286 284 284 286 289 290 289 289 289 290 289 290 292 295 298 302 306 309 312 314 316 319 322 325 325 325 325 323 320 319 321 322 323 323 323 327 333 339 348 358 7 15 20 23 25
290 292 294 295 297 300 302 302 302 302 302 300 299 298 296 295 294 292 286 281 279 279 278 275 273 271 270 269 269 272 276 280 284 284 283 283 284 286 291 294 291 289 289 290 292 292 291 290 290 290 290 293 297 300 303 308 311 312 313 316 318 320 324 329 330 329 327 328 327 326 324 324 324 323 320 317 319 325 334 344 354 3 12 18 20
290 293 295 297 299 300 300 298 298 299 299 297 296 294 292 290 289 288 286 284 281 279 278 276 272 270 269 270 270 271 274 279 282 284 285 286 286 288 293 296 294 292 294 295 294 294 293 291 290 291 294 299 305 309 312 315 317 318 319 323 326 328 331 336 342 341 335 332 333 332 330 328 326 324 319 312 308 309 315 325 337 347 357 6 12
290 293 296 297 298 297 295 293 295 296 296 295 293 290 287 286 286 286 285 284 282 280 278 274 272 272 273 273 274 275 277 279 282 284 287 290 292 293 294 294 294 295 295 295 294 294 293 291 290 293 300 309 318 325 330 334 337 338 340 340 341 343 346 350 357 359 354 346 342 341 341 340 336 332 326 316 303 289 288 298 313 325 336 349 358
292 295 296 296 295 292 290 290 293 294 293 292 290 287 285 285 284 284 284 283 281 278 271 268 270 272 269 268 270 274 277 278 281 285 289 292 294 294 293 293 295 296 295 293 293 292 291 291 293 299 310 323 333 341 352 3 8 9 8 1 357 356 358 1 6 9 8 4 358 354 354 356 355 350 342 331 317 285 261 262 276 293 304 317 333
295 295 294 292 291 289 288 289 291 292 291 290 290 288 287 285 284 281 280 281 282 280 274 271 271 271 270 269 269 271 275 278 281 284 288 290 290 290 291 292 294 294 292 290 289 288 288 292 298 307 319 333 345 353 1 8 11 14 13 7 1 360 358 358 1 4 6 8 6 1 359 4 9 8 1 354 346 325 267 240 237 247 260 273 288
293 292 291 290 288 286 286 288 290 290 289 288 288 286 285 285 285 283 280 279 279 280 281 280 278 276 274 274 272 271 272 275 277 280 283 285 286 288 290 293 293 291 288 284 281 283 289 295 304 318 328 335 342 348 351 354 356 360 4 3 360 357 353 349 350 352 355 360 2 358 356 1 8 11 12 11 6 360 342 267 238 235 241 254 268
288 288 288 287 286 285 287 289 290 289 288 287 285 285 286 286 286 286 286 284 281 280 281 282 282 281 279 276 273 272 272 273 277 280 282 283 284 286 288 288 285 282 279 278 280 286 297 304 312 321 325 329 332 336 341 346 349 350 354 356 355 353 349 343 341 340 341 344 348 350 351 352 354 359 7 12 13 12 12 5 315 255 246 249 256
284 282 282 283 284 286 289 291 289 288 289 290 291 292 292 292 291 290 290 288 286 284 282 277 275 277 279 279 278 277 277 278 280 281 281 279 280 282 283 282 278 275 277 283 292 301 308 317 323 323 320 325 335 336 337 340 342 341 342 344 344 344 344 340 334 331 328 329 331 335 339 342 343 344 349 357 4 9 10 11 12 5 303 260 255
281 279 279 281 284 287 290 290 288 287 289 291 294 296 297 296 296 296 296 295 297 300 298 288 276 273 274 277 278 277 277 277 275 272 272 274 278 281 282 281 281 284 289 294 300 307 310 318 336 336 327 328 337 337 332 332 332 332 333 335 335 336 338 336 333 328 323 319 318 319 322 326 332 334 334 338 345 353 358 360 2 8 13 2 303
276 278 282 286 288 289 289 287 285 285 287 289 292 296 298 299 302 304 305 306 308 309 308 303 292 280 275 275 276 275 275 276 274 268 263 266 272 276 277 276 278 284 291 295 298 302 303 310 355 360 328 321 325 326 323 324 327 328 329 330 331 332 333 334 335 332 326 319 315 312 311 314 319 322 323 324 327 333 341 347 347 347 355 6 10
281 286 290 291 290 289 289 288 286 288 289 291 293 296 298 301 304 305 304 304 305 305 305 303 295 284 276 274 275 274 273 273 273 270 265 265 270 274 277 280 284 288 291 289 287 284 286 295 325 355 315 306 310 315 317 320 323 325 324 325 326 327 328 329 330 331 329 326 322 317 313 310 310 311 314 315 315 318 322 328 332 334 337 343 351
Height
3187 3187 3187 3186 3186 3185 3184 3184 3183 3183 3182 3180 3179 3177 3175 3173 3172 3171 3170 3169 3168 3167 3165 3164 3163 3161 3159 3158 3156 3155 3154 3153 3152 3151 3151 3150 3149 3148 3147 3146 3145 3144 3143 3142 3141 3140 3139 3138 3137 3136 3135 3134 3133 3132 3131 3129 3128 3126 3124 3122 3121 3118 3115 3112 3107 3103 3104 3104 3103 3103 3105 3104 3105 3107 3107 3109 3112 3112 3112 3114 3115 3116 3117 3119 3122
3185 3184 3184 3184 3183 3183 3182 3181 3181 3180 3180 3178 3177 3175 3173 3171 3169 3168 3167 3167 3166 3164 3163 3162 3161 3159 3157 3156 3154 3153 3152 3151 3150 3149 3148 3147 3147 3146 3144 3144 3143 3142 3141 3139 3138 3137 3136 3135 3134 3133 3132 3131 3130 3129 3128 3126 3125 3123 3122 3119 3117 3114 3111 3107 3103 3098 3096 3097 3097 3097 3098 3097 3098 3101 3102 3102 3105 3106 3107 3108 3109 3110 3111 3114 3116
3182 3182 3182 3182 3181 3180 3180 3179 3179 3179 3178 3176 3175 3173 3170 3168 3167 3166 3165 3164 3162 3161 3160 3159 3157 3156 3155 3154 3153 3152 3150 3149 3148 3147 3146 3145 3144 3143 3142 3141 3140 3139 3138 3137 3136 3135 3134 3133 3131 3130 3129 3128 3126 3125 3124 3123 3121 3120 3118 3116 3113 3110 3108 3104 3100 3094 3090 3089 3091 3091 3090 3090 3091 3094 3095 3096 3098 3100 3101 3103 3104 3105 3106 3109 3111
3180 3179 3180 3179 3179 3178 3177 3177 3177 3177 3175 3174 3172 3170 3168 3166 3164 3162 3160 3159 3158 3157 3156 3155 3154 3154 3153 3152 3151 3150 3148 3147 3146 3145 3144 3143 3142 3141 3140 3139 3138 3137 3136 3134 3133 3132 3131 3130 3129 3127 3125 3124 3123 3122 3120 3119 3118 3116 3114 3113 3110 3107 3104 3101 3097 3092 3086 3083 3084 3085 3084 3084 3084 3086 3088 3090 3092 3093 3095 3097 3099 3100 3101 3104 3106
3177 3177 3177 3177 3177 3176 3175 3175 3175 3174 3172 3171 3169 3167 3165 3163 3161 3159 3157 3156 3156 3155 3154 3153 3152 3151 3150 3149 3148 3147 3146 3145 3144 3143 3142 3141 3139 3138 3137 3137 3136 3135 3133 3132 3131 3129 3128 3127 3126 3124 3122 3120 3119 3118 3116 3115 3114 3113 3111 3109 3107 3103 3101 3097 3093 3089 3084 3079 3078 3079 3079 3077 3078 3080 3082 3083 3085 3087 3089 3091 3093 3095 3096 3098 3101
3174 3174 3174 3175 3175 3173 3173 3173 3173 3171 3170 3168 3166 3164 3162 3161 3159 3158 3157 3156 3156 3155 3154 3152 3151 3149 3148 3147 3146 3145 3144 3143 3142 3141 3140 3138 3137 3136 3136 3135 3134 3133 3131 3130 3129 3127 3126 3124 3122 3121 3118 3117 3115 3114 3113 3111 3110 3109 3108 3105 3103 3100 3097 3094 3090 3086 3081 3076 3073 3073 3073 3072 3072 3074 3076 3078 3079 3081 3083 3085 3087 3089 3091 3093 3095
3171 3171 3172 3172 3172 3171 3171 3171 3170 3169 3168 3166 3164 3162 3161 3159 3159 3158 3157 3156 3154 3153 3152 3150 3149 3148 3147 3146 3144 3142 3141 3140 3139 3138 3137 3136 3135 3134 3133 3132 3132 3131 3129 3128 3126 3125 3123 3121 3119 3117 3115 3114 3112 3111 3110 3108 3107 3106 3104 3102 3099 3097 3093 3090 3086 3082 3077 3074 3071 3069 3068 3067 3066 3068 3070 3072 3073 3074 3077 3079 3081 3084 3086 3087 3091
3167 3169 3169 3169 3169 3169 3169 3168 3167 3166 3165 3163 3161 3160 3159 3157 3156 3155 3154 3153 3152 3151 3150 3149 3148 3147 3145 3144 3142 3140 3139 3138 3137 3135 3134 3133 3132 3131 3130 3130 3129 3128 3127 3126 3124 3122 3120 3118 3116 3114 3113 3111 3110 3109 3107 3105 3103 3102 3101 3098 3096 3093 3090 3086 3083 3079 3074 3070 3068 3066 3064 3063 3062 3062 3065 3067 3067 3069 3072 3073 3075 3078 3081 3082 3085
3163 3165 3166 3166 3167 3167 3166 3165 3164 3163 3161 3160 3158 3157 3156 3155 3154 3153 3153 3152 3151 3150 3149 3147 3146 3145 3143 3142 3140 3138 3137 3136 3134 3133 3131 3130 3130 3129 3127 3126 3126 3125 3124 3123 3121 3119 3117 3115 3113 3111 3109 3108 3107 3105 3104 3101 3099 3098 3097 3095 3092 3089 3086 3083 3079 3075 3071 3067 3064 3063 3061 3060 3059 3058 3059 3061 3062 3064 3067 3068 3069 3072 3075 3076 3078
3159 3160 3161 3163 3164 3164 3163 3162 3161 3160 3158 3156 3155 3154 3153 3153 3153 3152 3151 3150 3149 3148 3147 3145 3144 3142 3141 3140 3138 3136 3135 3133 3132 3130 3129 3128 3127 3125 3124 3123 3122 3121 3120 3119 3118 3117 3115 3113 3111 3109 3107 3105 3104 3102 3101 3098 3096 3095 3093 3092 3089 3086 3082 3079 3076 3071 3067 3063 3060 3058 3057 3056 3056 3054 3054 3055 3057 3059 3061 3062 3063 3066 3069 3070 3072
3155 3156 3158 3160 3161 3161 3160 3159 3158 3156 3155 3153 3152 3152 3151 3151 3151 3150 3149 3148 3147 3145 3144 3143 3141 3140 3138 3137 3135 3134 3132 3131 3130 3128 3127 3125 3124 3122 3121 3120 3119 3118 3117 3116 3115 3113 3112 3110 3108 3106 3104 3102 3101 3100 3098 3096 3094 3092 3090 3088 3086 3082 3079 3076 3072 3069 3064 3059 3056 3054 3052 3051 3052 3051 3049 3050 3051 3053 3055 3056 3058 3060 3062 3063 3065
3153 3155 3157 3158 3159 3158 3157 3156 3155 3153 3152 3151 3150 3150 3149 3149 3148 3147 3146 3145 3144 3143 3142 3141 3139 3137 3135 3134 3133 3131 3130 3129 3127 3126 3124 3123 3121 3120 3119 3118 3117 3116 3114 3113 3112 3110 3109 3107 3105 3103 3101 3100 3098 3097 3095 3093 3091 3089 3087 3085 3083 3080 3077 3073 3069 3066 3061 3056 3052 3050 3049 3047 3046 3047 3046 3045 3046 3047 3049 3050 3052 3054 3056 3057 3059
3152 3154 3155 3156 3156 3155 3155 3154 3153 3151 3150 3149 3148 3147 3147 3146 3145 3145 3144 3142 3141 3140 3139 3138 3136 3134 3132 3131 3130 3128 3127 3126 3125 3123 3121 3120 3118 3117 3116 3115 3114 3113 3112 3110 3109 3107 3106 3104 3103 3101 3099 3097 3095 3093 3092 3090 3088 3086 3084 3082 3080 3078 3076 3072 3068 3063 3059 3053 3049 3047 3046 3043 3041 3042 3043 3042 3041 3042 3043 3045 3047 3048 3050 3052 3055
3151 3152 3153 3154 3154 3153 3153 3151 3150 3149 3148 3147 3146 3145 3144 3144 3143 3142 3141 3140 3139 3138 3136 3135 3134 3132 3130 3128 3126 3126 3125 3124 3122 3120 3118 3117 3115 3114 3113 3112 3111 3110 3109 3107 3106 3104 3103 3101 3100 3098 3096 3094 3092 3090 3088 3087 3085 3083 3081 3079 3077 3075 3073 3070 3067 3062 3057 3052 3047 3044 3043 3041 3038 3037 3038 3038 3037 3037 3038 3040 3042 3044 3045 3048 3051
3149 3150 3151 3152 3152 3151 3150 3149 3148 3147 3146 3144 3143 3142 3142 3141 3140 3139 3138 3137 3136 3135 3133 3132 3130 3129 3127 3125 3124 3123 3122 3121 3119 3117 3116 3114 3112 3111 3109 3109 3108 3107 3106 3104 3103 3102 3100 3098 3096 3094 3093 3091 3089 3087 3086 3084 3082 3080 3078 3076 3074 3072 3070 3067 3064 3060 3056 3051 3046 3042 3040 3037 3034 3032 3032 3032 3032 3032 3034 3035 3037 3039 3040 3042 3045
3147 3148 3148 3149 3149 3148 3147 3146 3145 3144 3143 3142 3140 3139 3139 3138 3137 3136 3135 3134 3133 3132 3131 3129 3127 3126 3124 3122 3121 3120 3119 3118 3116 3114 3113 3111 3109 3108 3106 3105 3104 3104 3103 3102 3100 3099 3097 3095 3093 3091 3090 3088 3086 3084 3083 3081 3079 3077 3075 3073 3071 3069 3066 3064 3061 3058 3054 3049 3044 3040 3036 3033 3030 3027 3026 3026 3027 3027 3028 3029 3031 3033 3035 3036 3038
3144 3146 3146 3146 3146 3145 3144 3143 3142 3141 3140 3138 3137 3136 3135 3134 3134 3132 3131 3131 3130 3129 3128 3126 3125 3123 3121 3119 3117 3117 3117 3116 3114 3112 3110 3108 3106 3105 3103 3102 3101 3100 3100 3099 3098 3096 3095 3092 3090 3088 3086 3085 3083 3081 3080 3078 3076 3073 3071 3069 3068 3065 3063 3060 3058 3055 3051 3047 3042 3037 3032 3028 3025 3022 3021 3020 3021 3022 3022 3021 3025 3028 3029 3030 3033
3142 3143 3144 3144 3143 3142 3141 3140 3139 3138 3136 3135 3134 3133 3132 3131 3130 3129 3128 3128 3127 3126 3125 3123 3121 3120 3118 3116 3114 3113 3113 3113 3111 3109 3107 3105 3104 3102 3100 3099 3098 3098 3097 3096 3095 3093 3092 3090 3087 3085 3083 3081 3080 3078 3077 3075 3073 3070 3068 3066 3064 3062 3059 3056 3054 3051 3047 3043 3038 3033 3028 3024 3020 3017 3014 3014 3015 3016 3014 3015 3019 3023 3023 3025 3029
3139 3140 3140 3140 3139 3139 3138 3137 3136 3134 3133 3131 3130 3130 3129 3128 3127 3126 3125 3125 3124 3123 3122 3120 3118 3116 3114 3112 3111 3110 3109 3109 3108 3106 3104 3102 3101 3099 3098 3097 3096 3095 3094 3093 3092 3091 3089 3087 3085 3083 3080 3079 3077 3075 3073 3072 3070 3067 3065 3063 3061 3058 3055 3052 3049 3045 3041 3037 3033 3027 3022 3018 3015 3011 3008 3007 3008 3009 3008 3009 3013 3015 3016 3019 3024
3136 3136 3136 3136 3136 3135 3134 3133 3131 3130 3128 3127 3126 3126 3125 3124 3123 3122 3122 3121 3119 3119 3118 3116 3115 3113 3111 3110 3108 3107 3106 3105 3104 3102 3100 3099 3098 3096 3095 3094 3093 3092 3092 3090 3089 3088 3086 3084 3082 3080 3078 3076 3075 3073 3071 3069 3067 3065 3063 3060 3057 3055 3052 3049 3045 3041 3037 3033 3029 3023 3018 3013 3010 3007 3003 3001 3001 3002 3002 3003 3006 3008 3010 3014 3019
3132 3133 3133 3133 3132 3132 3131 3129 3127 3126 3124 3122 3121 3121 3120 3119 3117 3115 3115 3114 3114 3113 3113 3112 3111 3110 3108 3107 3105 3104 3103 3102 3101 3099 3098 3097 3095 3094 3092 3091 3090 3090 3089 3088 3086 3085 3084 3082 3080 3077 3075 3074 3073 3070 3068 3066 3064 3062 3060 3058 3055 3052 3049 3046 3042 3039 3035 3031 3026 3021 3015 3009 3006 3002 2999 2996 2995 2995 2996 2997 2999 3002 3005 3009 3013
3129 3129 3130 3130 3129 3129 3128 3126 3125 3122 3119 3117 3117 3118 3117 3115 3113 3111 3110 3109 3107 3107 3107 3108 3107 3107 3105 3104 3103 3101 3101 3100 3098 3096 3095 3094 3093 3092 3090 3089 3088 3087 3086 3085 3084 3082 3081 3079 3077 3075 3073 3072 3070 3068 3065 3064 3062 3060 3058 3055 3052 3050 3046 3043 3040 3037 3033 3029 3024 3019 3013 3006 3002 2998 2995 2992 2989 2989 2990 2991 2993 2996 3000 3005 3009
3125 3126 3126 3126 3126 3125 3124 3123 3121 3119 3117 3115 3115 3116 3115 3113 3111 3110 3108 3106 3102 3101 3102 3103 3104 3104 3102 3101 3100 3098 3097 3097 3095 3093 3093 3092 3091 3089 3088 3086 3085 3084 3083 3082 3081 3080 3078 3076 3074 3072 3070 3069 3068 3065 3063 3061 3059 3057 3055 3053 3050 3048 3045 3042 3039 3035 3031 3027 3022 3017 3011 3004 2999 2994 2990 2987 2985 2984 2984 2986 2988 2991 2996 3001 3005
3124 3124 3124 3124 3123 3122 3121 3119 3117 3115 3114 3113 3113 3113 3111 3109 3108 3106 3105 3102 3100 3099 3099 3098 3099 3099 3099 3098 3096 3095 3094 3093 3092 3091 3090 3089 3088 3086 3085 3084 3082 3081 3080 3079 3078 3077 3075 3073 3071 3069 3067 3066 3065 3062 3060 3059 3057 3055 3053 3051 3048 3046 3043 3040 3037 3034 3030 3026 3021 3016 3010 3004 2998 2992 2987 2984 2981 2980 2980 2981 2983 2987 2992 2997 3001
3123 3123 3123 3122 3121 3120 3119 3117 3114 3113 3112 3110 3110 3109 3107 3106 3104 3103 3102 3100 3098 3096 3096 3094 3092 3093 3094 3095 3093 3091 3090 3090 3088 3087 3087 3087 3085 3084 3083 3081 3079 3078 3077 3076 3075 3073 3072 3070 3068 3066 3064 3063 3062 3059 3058 3057 3055 3053 3051 3048 3046 3044 3041 3038 3035 3032 3029 3024 3020 3015 3009 3004 2998 2992 2986 2982 2978 2976 2976 2978 2980 2984 2989 2993 2997
3120 3120 3120 3120 3119 3117 3116 3114 3112 3111 3109 3108 3106 3105 3103 3102 3101 3099 3098 3097 3095 3094 3094 3093 3088 3087 3089 3090 3089 3088 3087 3086 3085 3084 3084 3083 3082 3081 3079 3078 3076 3074 3073 3072 3071 3070 3068 3067 3065 3063 3061 3060 3059 3057 3056 3055 3053 3051 3048 3046 3044 3041 3039 3036 3033 3030 3027 3023 3019 3014 3009 3003 2998 2992 2986 2981 2976 2974 2973 2975 2977 2981 2985 2989 2993
3116 3116 3116 3116 3115 3113 3112 3110 3109 3107 3106 3104 3102 3101 3099 3098 3097 3095 3094 3093 3092 3090 3090 3089 3086 3084 3085 3086 3085 3084 3083 3082 3081 3081 3080 3080 3079 3077 3076 3074 3072 3071 3069 3069 3068 3067 3066 3064 3061 3060 3059 3058 3057 3055 3054 3052 3051 3049 3047 3044 3042 3039 3037 3034 3031 3029 3026 3022 3018 3014 3009 3004 2998 2992 2986 2980 2975 2972 2971 2973 2975 2978 2982 2986 2990
3113 3113 3112 3112 3111 3109 3108 3107 3105 3103 3102 3100 3098 3097 3095 3094 3092 3090 3089 3089 3088 3086 3085 3084 3083 3082 3082 3081 3080 3080 3079 3078 3077 3077 3076 3075 3075 3074 3073 3071 3069 3068 3067 3066 3065 3064 3063 3061 3059 3057 3057 3056 3054 3053 3052 3050 3049 3047 3045 3042 3040 3038 3035 3033 3031 3028 3025 3022 3018 3014 3010 3005 2999 2992 2986 2981 2976 2972 2971 2971 2973 2977 2981 2985 2988
3110 3110 3109 3108 3107 3105 3104 3103 3101 3099 3097 3095 3094 3092 3090 3089 3087 3086 3085 3084 3084 3083 3081 3080 3079 3078 3078 3077 3076 3075 3075 3074 3074 3073 3072 3071 3071 3070 3069 3068 3066 3065 3063 3063 3062 3061 3060 3059 3058 3056 3055 3054 3052 3051 3050 3048 3047 3045 3043 3040 3038 3036 3034 3032 3030 3027 3025 3022 3018 3013 3009 3005 3000 2994 2988 2982 2977 2973 2971 2971 2973 2976 2980 2983 2985
3107 3106 3105 3103 3101 3100 3099 3098 3096 3094 3092 3091 3089 3087 3085 3084 3083 3081 3080 3080 3080 3079 3078 3077 3076 3074 3074 3073 3072 3071 3071 3071 3070 3069 3068 3067 3066 3066 3065 3064 3063 3061 3060 3059 3059 3058 3057 3057 3056 3054 3052 3051 3050 3048 3047 3046 3044 3043 3041 3039 3037 3035 3033 3030 3028 3026 3024 3021 3017 3013 3009 3006 3001 2996 2991 2985 2980 2976 2972 2971 2972 2974 2977 2980 2981
3103 3102 3101 3099 3098 3097 3096 3094 3092 3090 3088 3087 3085 3083 3081 3080 3079 3078 3077 3076 3075 3074 3074 3073 3072 3071 3070 3069 3068 3067 3067 3066 3065 3064 3063 3062 3062 3061 3061 3060 3059 3058 3056 3056 3056 3055 3055 3054 3053 3051 3050 3049 3048 3046 3045 3043 3042 3041 3039 3037 3035 3033 3031 3029 3027 3025 3023 3020 3017 3014 3010 3007 3003 2998 2993 2989 2984 2979 2976 2973 2971 2971 2974 2976 2977
3099 3098 3097 3096 3095 3094 3092 3091 3089 3087 3085 3083 3081 3079 3077 3076 3075 3074 3073 3072 3071 3070 3069 3069 3068 3067 3066 3064 3063 3062 3062 3061 3060 3059 3058 3057 3057 3056 3056 3055 3054 3054 3053 3053 3053 3052 3052 3051 3050 3048 3047 3046 3045 3044 3042 3041 3040 3038 3037 3035 3033 3031 3029 3027 3025 3023 3021 3019 3017 3014 3011 3008 3005 3001 2996 2992 2988 2983 2979 2975 2972 2971 2972 2973 2974
3095 3094 3093 3092 3091 3090 3088 3087 3085 3083 3081 3079 3077 3076 3074 3072 3071 3070 3069 3068 3067 3066 3065 3064 3063 3062 3061 3060 3059 3058 3057 3057 3056 3055 3054 3053 3052 3052 3051 3051 3050 3050 3050 3050 3050 3049 3049 3048 3047 3046 3045 3044 3043 3041 3040 3038 3037 3036 3034 3032 3031 3029 3027 3026 3024 3021 3020 3018 3016 3014 3011 3009 3006 3003 2999 2996 2991 2987 2982 2979 2976 2974 2972 2970 2971
3091 3090 3088 3088 3087 3086 3084 3083 3081 3080 3078 3075 3074 3072 3070 3068 3067 3066 3065 3064 3063 3062 3061 3060 3059 3058 3057 3056 3055 3054 3054 3053 3052 3051 3050 3049 3048 3048 3048 3047 3047 3047 3047 3047 3047 3046 3046 3045 3044 3043 3042 3041 3040 3039 3037 3036 3034 3033 3031 3030 3028 3027 3025 3024 3022 3020 3019 3017 3015 3014 3011 3009 3007 3004 3001 2998 2995 2991 2987 2983 2979 2978 2975 2972 2971
3086 3085 3084 3083 3082 3081 3080 3078 3077 3076 3074 3072 3070 3068 3067 3065 3063 3062 3061 3060 3059 3058 3058 3057 3056 3055 3054 3053 3052 3051 3050 3049 3048 3047 3047 3046 3045 3044 3044 3044 3044 3044 3044 3044 3044 3043 3043 3042 3041 3040 3039 3038 3037 3036 3035 3033 3032 3030 3029 3027 3026 3025 3023 3022 3020 3019 3018 3016 3014 3013 3011 3009 3007 3005 3002 3000 2997 2994 2991 2987 2983 2980 2979 2977 2976
3082 3081 3080 3079 3078 3076 3075 3073 3072 3071 3070 3067 3066 3064 3062 3061 3060 3059 3058 3056 3055 3055 3055 3054 3053 3052 3051 3050 3048 3047 3046 3046 3045 3044 3043 3043 3042 3042 3042 3042 3041 3041 3041 3040 3040 3040 3040 3039 3038 3037 3036 3035 3034 3033 3032 3031 3029 3028 3026 3025 3024 3023 3021 3020 3019 3017 3016 3015 3013 3012 3010 3009 3008 3006 3003 3001 2999 2996 2994 2991 2988 2985 2983 2981 2980
3077 3077 3076 3075 3073 3071 3070 3069 3068 3067 3065 3063 3061 3059 3058 3057 3056 3055 3054 3052 3051 3051 3051 3051 3050 3049 3048 3047 3045 3044 3043 3043 3042 3042 3041 3041 3040 3040 3040 3039 3039 3039 3038 3037 3037 3037 3036 3036 3035 3034 3033 3032 3031 3030 3029 3028 3026 3025 3023 3022 3022 3021 3019 3018 3017 3016 3014 3013 3012 3011 3010 3008 3007 3006 3004 3002 3001 2999 2997 2994 2992 2990 2987 2986 2984
3073 3073 3072 3070 3068 3067 3066 3065 3064 3062 3060 3058 3056 3055 3054 3053 3052 3051 3050 3049 3047 3047 3047 3047 3047 3046 3045 3043 3042 3041 3040 3040 3039 3039 3039 3038 3038 3038 3038 3038 3038 3037 3036 3034 3034 3034 3033 3032 3031 3031 3030 3029 3028 3027 3026 3025 3024 3022 3021 3020 3019 3018 3017 3016 3015 3014 3013 3011 3010 3009 3009 3008 3007 3006 3004 3003 3001 3000 2999 2997 2995 2994 2992 2990 2988
3069 3068 3067 3066 3064 3063 3062 3061 3059 3057 3056 3054 3052 3051 3050 3049 3048 3047 3046 3045 3044 3044 3044 3044 3043 3043 3042 3041 3040 3039 3038 3037 3037 3037 3037 3037 3036 3036 3036 3036 3036 3035 3034 3032 3031 3031 3030 3029 3028 3028 3027 3026 3025 3025 3023 3022 3021 3020 3019 3018 3017 3016 3015 3014 3013 3012 3011 3010 3009 3008 3007 3006 3006 3005 3004 3003 3002 3001 3000 2999 2998 2996 2995 2993 2992
3064 3063 3062 3061 3060 3059 3058 3057 3055 3053 3052 3050 3048 3047 3046 3045 3044 3044 3043 3042 3042 3041 3042 3041 3041 3040 3039 3039 3038 3037 3036 3036 3035 3035 3035 3035 3034 3034 3034 3033 3032 3032 3031 3029 3028 3027 3027 3026 3025 3025 3024 3023 3023 3022 3021 3020 3019 3017 3016 3016 3015 3014 3013 3013 3011 3010 3009 3008 3007 3007 3006 3005 3005 3004 3004 3003 3002 3001 3000 3000 2999 2998 2997 2996 2995
3059 3058 3057 3056 3055 3054 3053 3052 3050 3049 3048 3046 3045 3044 3043 3042 3041 3040 3040 3040 3040 3040 3039 3039 3038 3038 3037 3037 3037 3036 3035 3034 3033 3032 3032 3032 3032 3031 3031 3030 3029 3028 3027 3026 3025 3024 3024 3023 3022 3021 3021 3020 3020 3019 3019 3018 3017 3015 3015 3014 3013 3012 3011 3011 3010 3009 3008 3007 3006 3005 3004 3004 3003 3003 3003 3002 3002 3001 3001 3000 2999 2999 2998 2997 2996
3054 3053 3052 3051 3050 3049 3048 3047 3046 3045 3044 3043 3042 3041 3040 3039 3038 3037 3036 3036 3037 3037 3037 3036 3035 3035 3035 3035 3034 3033 3032 3031 3030 3029 3029 3029 3029 3029 3028 3028 3026 3025 3024 3023 3022 3021 3021 3020 3019 3019 3018 3018 3018 3017 3017 3016 3015 3014 3013 3012 3012 3011 3010 3009 3008 3007 3006 3005 3004 3004 3003 3003 3002 3002 3002 3001 3001 3001 3000 3000 2999 2999 2998 2998 2997
3050 3049 3048 3046 3045 3044 3044 3043 3042 3041 3040 3039 3038 3038 3037 3036 3036 3035 3034 3033 3034 3034 3034 3033 3033 3032 3032 3032 3031 3030 3030 3029 3028 3027 3026 3026 3026 3025 3025 3024 3023 3022 3022 3021 3020 3019 3018 3017 3017 3016 3016 3016 3015 3015 3015 3014 3014 3013 3012 3011 3011 3010 3009 3008 3007 3007 3006 3005 3004 3003 3002 3001 3001 3001 3000 3000 3000 3000 3000 3000 2999 2999 2998 2998 2997
3045 3045 3043 3042 3041 3040 3039 3039 3039 3038 3037 3036 3036 3035 3034 3034 3034 3033 3031 3030 3030 3031 3031 3031 3030 3030 3030 3029 3029 3028 3027 3026 3025 3024 3023 3023 3023 3022 3022 3021 3020 3020 3019 3018 3018 3017 3016 3015 3014 3014 3014 3014 3014 3013 3013 3013 3013 3012 3012 3011 3010 3009 3009 3008 3007 3006 3006 3005 3004 3003 3002 3001 3000 3000 2999 2999 2999 2999 2999 2999 2999 2998 2998 2998 2998
3040 3040 3039 3038 3038 3037 3036 3035 3035 3035 3034 3033 3033 3032 3032 3031 3031 3030 3029 3028 3027 3027 3028 3028 3028 3027 3027 3027 3027 3026 3025 3024 3023 3022 3021 3021 3020 3020 3019 3018 3018 3017 3017 3016 3016 3015 3014 3013 3013 3013 3013 3013 3012 3012 3012 3012 3012 3012 3011 3011 3010 3009 3008 3008 3007 3006 3006 3005 3004 3003 3002 3001 3000 3000 2999 2998 2998 2998 2998 2998 2998 2998 2998 2997 2997
3036 3035 3035 3034 3034 3034 3033 3033 3032 3032 3031 3030 3030 3029 3029 3028 3028 3027 3027 3026 3025 3024 3024 3024 3024 3024 3024 3024 3024 3023 3023 3022 3021 3020 3019 3018 3017 3017 3017 3016 3016 3015 3015 3015 3014 3014 3013 3012 3012 3012 3012 3012 3012 3012 3011 3011 3011 3011 3011 3010 3010 3009 3008 3008 3007 3006 3005 3005 3004 3003 3002 3001 3000 3000 2999 2998 2998 2997 2997 2997 2997 2997 2997 2997 2997
3032 3032 3031 3031 3030 3030 3029 3029 3029 3028 3028 3027 3027 3027 3026 3026 3025 3024 3024 3023 3023 3022 3021 3020 3019 3019 3020 3021 3021 3020 3020 3019 3019 3018 3017 3016 3015 3015 3015 3015 3014 3013 3013 3013 3013 3013 3012 3011 3011 3011 3011 3011 3011 3011 3011 3010 3010 3010 3010 3010 3009 3009 3008 3007 3007 3006 3005 3004 3004 3003 3002 3001 3000 3000 2999 2998 2998 2997 2997 2997 2996 2996 2996 2996 2996
3029 3029 3029 3028 3028 3027 3026 3026 3025 3025 3024 3024 3024 3024 3023 3023 3022 3021 3021 3020 3019 3019 3018 3017 3015 3014 3014 3016 3016 3016 3016 3016 3016 3015 3014 3013 3013 3013 3013 3013 3012 3012 3012 3012 3012 3012 3011 3011 3011 3010 3010 3011 3010 3010 3010 3010 3009 3009 3009 3008 3008 3008 3007 3007 3006 3005 3005 3004 3003 3002 3002 3001 3000 2999 2999 2998 2998 2997 2997 2996 2996 2996 2995 2995 2995
3026 3026 3026 3026 3025 3024 3023 3023 3022 3022 3022 3021 3021 3020 3020 3019 3018 3018 3017 3016 3016 3015 3015 3014 3013 3011 3011 3011 3012 3012 3012 3012 3013 3012 3011 3011 3010 3010 3010 3010 3011 3011 3011 3010 3010 3011 3011 3011 3011 3010 3010 3010 3010 3010 3009 3009 3008 3008 3008 3007 3007 3007 3006 3006 3005 3005 3004 3003 3003 3002 3001 3000 3000 2999 2998 2997 2997 2997 2997 2996 2996 2995 2995 2995 2995
3023 3023 3022 3022 3022 3021 3020 3020 3020 3020 3019 3018 3018 3017 3016 3015 3014 3013 3012 3011 3011 3011 3011 3010 3010 3009 3008 3008 3009 3009 3009 3009 3009 3010 3009 3009 3008 3008 3008 3009 3009 3009 3009 3009 3009 3010 3010 3010 3011 3010 3010 3009 3009 3009 3008 3008 3008 3007 3007 3006 3006 3005 3005 3005 3004 3004 3003 3003 3002 3001 3000 2999 2999 2998 2998 2997 2996 2996 2996 2996 2995 2995 2995 2995 2995
3020 3020 3020 3020 3019 3018 3017 3017 3016 3016 3016 3015 3014 3013 3012 3011 3010 3009 3008 3007 3007 3007 3007 3007 3007 3006 3005 3005 3006 3006 3006 3006 3006 3006 3007 3007 3007 3007 3007 3007 3007 3008 3008 3008 3008 3009 3009 3009 3010 3010 3010 3009 3008 3008 3008 3007 3007 3006 3006 3005 3005 3004 3004 3003 3003 3003 3002 3002 3001 3000 2999 2999 2998 2998 2997 2997 2996 2995 2995 2995 2995 2995 2994 2994 2994